TimeEDT,TemperatureF,Dew PointF,Humidity,Sea Level PressureIn,VisibilityMPH,Wind Direction,Wind SpeedMPH,Gust SpeedMPH,PrecipitationIn,Events,Conditions,WindDirDegrees,DateUTC
12:51 AM,61.0,55.0,81,30.06,10.0,SSE,3.5,-,N/A,,Overcast,160,2012-09-17 04:51:00
1:51 AM,61.0,54.0,78,30.06,10.0,SSE,3.5,-,N/A,,Overcast,150,2012-09-17 05:51:00
2:51 AM,61.0,54.0,78,30.04,10.0,Calm,Calm,-,N/A,,Overcast,0,2012-09-17 06:51:00
3:51 AM,61.0,54.0,78,30.02,10.0,Calm,Calm,-,N/A,,Overcast,0,2012-09-17 07:51:00
4:51 AM,62.1,54.0,75,30.02,10.0,SE,4.6,-,N/A,,Overcast,140,2012-09-17 08:51:00
5:51 AM,62.1,54.0,75,30.01,10.0,ESE,3.5,-,N/A,,Mostly Cloudy,120,2012-09-17 09:51:00
6:51 AM,62.1,55.9,80,30.02,10.0,SE,3.5,-,N/A,,Overcast,140,2012-09-17 10:51:00
7:51 AM,62.1,57.0,84,30.03,10.0,SSE,8.1,-,N/A,,Overcast,150,2012-09-17 11:51:00
8:51 AM,63.0,57.9,84,30.05,10.0,SSE,6.9,-,N/A,,Overcast,150,2012-09-17 12:51:00
9:51 AM,66.9,59.0,76,30.04,10.0,SE,5.8,-,N/A,,Partly Cloudy,140,2012-09-17 13:51:00
10:51 AM,71.1,60.1,68,30.02,10.0,SW,6.9,-,N/A,,Clear,220,2012-09-17 14:51:00
11:23 AM,71.6,59.0,64,30.09,10.0,SSW,8.1,-,N/A,,Mostly Cloudy,210,2012-09-17 15:23:00
11:30 AM,71.6,59.0,64,30.09,10.0,SSW,5.8,-,N/A,,Scattered Clouds,210,2012-09-17 15:30:00
11:51 AM,72.0,59.0,64,30.01,10.0,SSW,6.9,-,N/A,,Clear,210,2012-09-17 15:51:00
12:51 PM,70.0,60.1,71,30.00,10.0,SE,5.8,-,N/A,,Partly Cloudy,140,2012-09-17 16:51:00
1:51 PM,68.0,61.0,78,30.00,10.0,SSE,10.4,-,0.00,Rain,Light Rain,160,2012-09-17 17:51:00
2:51 PM,66.0,62.1,87,29.99,10.0,South,8.1,-,0.00,Rain,Light Rain,170,2012-09-17 18:51:00
3:51 PM,64.9,62.1,90,29.98,10.0,SSE,5.8,-,0.08,Rain,Light Rain,150,2012-09-17 19:51:00
4:51 PM,64.9,61.0,87,29.96,10.0,SSE,8.1,-,0.05,Rain,Light Rain,160,2012-09-17 20:51:00
6:51 PM,63.0,61.0,93,29.95,10.0,SE,5.8,-,0.03,Rain,Light Rain,130,2012-09-17 22:51:00
7:51 PM,63.0,60.1,90,29.93,10.0,SE,8.1,-,0.07,Rain,Light Rain,140,2012-09-17 23:51:00
8:51 PM,63.0,60.1,90,29.91,10.0,SE,9.2,-,0.04,Rain,Light Rain,130,2012-09-18 00:51:00
9:32 PM,62.6,60.8,94,29.97,10.0,SE,11.5,-,0.00,,Overcast,140,2012-09-18 01:32:00
9:41 PM,62.6,60.8,94,29.96,10.0,SE,12.7,17.3,0.00,,Overcast,140,2012-09-18 01:41:00
9:51 PM,63.0,60.1,90,29.89,10.0,SE,11.5,19.6,0.00,Rain,Light Rain,140,2012-09-18 01:51:00
10:25 PM,62.6,60.8,94,29.95,10.0,SSE,9.2,-,N/A,,Overcast,150,2012-09-18 02:25:00
10:43 PM,62.6,60.8,94,29.95,10.0,SSE,8.1,-,N/A,,Mostly Cloudy,150,2012-09-18 02:43:00
10:51 PM,63.0,60.1,90,29.86,10.0,SSE,4.6,-,N/A,,Mostly Cloudy,160,2012-09-18 02:51:00
11:51 PM,63.0,61.0,93,29.83,10.0,SE,10.4,-,0.01,Rain,Light Rain,140,2012-09-18 03:51:00